This is the latest recevied weather packets stored in our database for station/object DR0T. If no packets are shown the sender has not sent any weather packets the latest 10 day(s).
| Time | Temp. | Humidity | Pressure | Rain* | Wind** | Luminosity | Snow |
|---|---|---|---|---|---|---|---|
| 1777548444 | 12.78° C | 37% | 1027.6 hPa | 0 mm | - | - | - |
| 1777548143 | 12.78° C | 37% | 1027.6 hPa | 0 mm | - | - | - |
| 1777547843 | 13.33° C | 38% | 1027.6 hPa | 0 mm | - | - | - |
| 1777547544 | 12.78° C | 39% | 1027.7 hPa | 0 mm | - | - | - |
| 1777547239 | 12.78° C | 39% | 1027.7 hPa | 0 mm | - | - | - |
| 1777546938 | 12.78° C | 41% | 1027.8 hPa | 0 mm | - | - | - |
| 1777546638 | 12.78° C | 39% | 1027.8 hPa | 0 mm | - | - | - |
| 1777546355 | 12.78° C | 41% | 1027.9 hPa | 0 mm | - | - | - |
| 1777546053 | 12.22° C | 39% | 1027.8 hPa | 0 mm | - | - | - |
| 1777545752 | 12.22° C | 39% | 1027.8 hPa | 0 mm | - | - | - |
| 1777545451 | 12.78° C | 38% | 1027.9 hPa | 0 mm | - | - | - |
| 1777545156 | 12.22° C | 40% | 1027.9 hPa | 0 mm | - | - | - |
| 1777544849 | 12.22° C | 40% | 1027.9 hPa | 0 mm | - | - | - |
| 1777544548 | 11.11° C | 41% | 1027.8 hPa | 0 mm | - | - | - |
| 1777544248 | 11.67° C | 40% | 1027.8 hPa | 0 mm | - | - | - |
| 1777543947 | 12.22° C | 39% | 1027.9 hPa | 0 mm | - | - | - |
| 1777543645 | 12.22° C | 40% | 1027.8 hPa | 0 mm | - | - | - |
| 1777543342 | 11.67° C | 41% | 1027.9 hPa | 0 mm | - | - | - |
| 1777543041 | 11.67° C | 40% | 1027.8 hPa | 0 mm | - | - | - |
| 1777542739 | 11.11° C | 42% | 1027.8 hPa | 0 mm | - | - | - |
| 1777542438 | 10.56° C | 42% | 1027.8 hPa | 0 mm | - | - | - |
| 1777542139 | 11.11° C | 40% | 1027.7 hPa | 0 mm | - | - | - |
| 1777541836 | 10.56° C | 42% | 1027.9 hPa | 0 mm | - | - | - |
| 1777541556 | 10.56° C | 41% | 1027.9 hPa | 0 mm | - | - | - |
| 1777541259 | 11.11° C | 40% | 1028 hPa | 0 mm | - | - | - |
* Rain latest hour (hover to see other rain measurements)
** Current wind speed in m/s (hover to see current wind gust speed)